Location: Unspecified
(44.9196°N, 0.0000°E)
Time: 22:47:41
(UTC+00:00)

Tiangong 2 - Visible Passes

Search period start: 19 June 2019 00:00
Search period end: 29 June 2019 00:00
Orbit: 376 x 389 km, 42.8° (Epoch: 19 June)

Date Brightness Start Highest point End Pass type
(mag) Time Alt. Az. Time Alt. Az. Time Alt. Az.
26 Jun 3.1 03:13:50 10° SSW 03:15:56 17° SSE 03:18:05 10° ESE visible
27 Jun 3.6 02:16:12 10° SE 02:16:12 10° SE 02:16:37 10° SE visible
28 Jun 2.5 02:50:40 19° SSW 02:51:57 25° SSE 02:54:37 10° E visible
